Weather History for Bermuda, Bermuda

Change the Weather History Date:

Sunday, September 19, 2010

  Actual Average Record
Temperature  
Mean Temperature 78 °F -  
Max Temperature 80 °F 78 °F - ()
Min Temperature 77 °F 71 °F - ()
Cooling Degree Days 14    
Growing Degree Days 28 (Base 50)    
Moisture  
Dew Point 75 °F    
Average Humidity 89    
Maximum Humidity 94    
Minimum Humidity 78    
Precipitation  
Precipitation 1.89 in - - ()
Sea Level Pressure  
Sea Level Pressure 29.26 in    
Wind  
Wind Speed 35 mph ()    
Max Wind Speed 68 mph    
Max Gust Speed 93 mph    
Visibility 2.2 miles    
Events Rain    
T = Trace of Precipitation, MM = Missing Value Source: Averaged Metar Reports

Daily Weather History Graph

Daily Weather History Graph

Search for Another Location

Airport:

Trip Planner

Search our weather history database for the weather conditions in past years. The results will help you decide how hot, cold, wet, or windy it might be!

Date:

Astronomy

Sep. 19, 2010 Rise Set
Actual Time 7:04 AM ADT 7:19 PM ADT
Civil Twilight 6:40 AM ADT 7:44 PM ADT
Nautical Twilight 6:11 AM ADT 8:12 PM ADT
Astronomical Twilight 5:42 AM ADT 8:41 PM ADT
Moon 5:14 PM ADT (9/19) 3:40 AM ADT (9/19)
Length of Visible Light 13h 03m
Length of Day
12h 14m
Waxing Gibbous, 88% of the Moon is Illuminated
Sep 19
Waxing Gibbous
Sep 23
Full
Oct 1
Last Quarter
Oct 7
New
Oct 14
First Quarter

Hourly Weather History & Observations

Time (ADT) Temp. Heat Index Dew Point Humidity Pressure Visibility Wind Dir Wind Speed Gust Speed Precip Events Conditions
12:00 AM 81 °F - 76 °F 81% 29.76 in 6 mi ENE 26.5 mph - - Rain Light Rain
12:55 AM 80.6 °F 86.2 °F 75.2 °F 84% 29.71 in 5.0 mi ENE 26.5 mph 38.0 mph N/A Rain Light Rain
1:55 AM 80.6 °F 86.2 °F 75.2 °F 84% 29.68 in 3.7 mi ENE 25.3 mph - N/A Rain Light Rain
2:55 AM 80.6 °F 86.2 °F 75.2 °F 84% 29.65 in 3.7 mi ENE 27.6 mph 39.1 mph N/A Rain Light Rain
3:00 AM 80 °F - 76 °F 82% 29.68 in 4 mi ENE 27.6 mph - - Rain Light Rain
3:55 AM 80.6 °F 86.2 °F 75.2 °F 84% 29.62 in 3.7 mi ENE 27.6 mph 40.3 mph N/A Rain Light Rain
4:55 AM 80.6 °F 86.2 °F 75.2 °F 84% 29.59 in 6.2 mi ENE 29.9 mph 42.6 mph N/A   Overcast
5:55 AM 80.6 °F 86.2 °F 75.2 °F 84% 29.59 in 3.7 mi ENE 31.1 mph 44.9 mph N/A Rain Light Rain
6:00 AM 81 °F - 75 °F 78% 29.60 in 4 mi ENE 33.4 mph - - Rain Light Rain
6:55 AM 80.6 °F 86.2 °F 75.2 °F 84% 29.56 in 3.7 mi ENE 31.1 mph 44.9 mph N/A Rain Light Rain
7:55 AM 80.6 °F 86.2 °F 75.2 °F 84% 29.53 in 3.7 mi ENE 32.2 mph 50.6 mph N/A Rain Light Rain
8:55 AM 80.6 °F 87.1 °F 77.0 °F 89% 29.50 in - East 33.4 mph 51.8 mph N/A Rain Light Rain
9:00 AM 80 °F - 76 °F 84% 29.53 in 3 mi ENE 34.5 mph - - Rain Light Rain
9:08 AM 80.6 °F 87.1 °F 77.0 °F 89% 29.50 in 2.5 mi East 33.4 mph 51.8 mph N/A Rain Rain
9:55 AM 78.8 °F - 75.2 °F 89% 29.47 in - East 39.1 mph 57.5 mph N/A Rain Rain
10:34 AM 78.8 °F - 75.2 °F 89% 29.44 in 1.0 mi East 40.3 mph 58.7 mph N/A Rain Heavy Rain
10:55 AM 77.0 °F - 75.2 °F 94% 29.42 in 1.5 mi East 46.0 mph 63.3 mph N/A Rain Rain
11:15 AM 77.0 °F - 75.2 °F 94% 29.39 in 0.5 mi East 46.0 mph 71.3 mph N/A Rain Heavy Rain
11:55 AM 77.0 °F - 75.2 °F 94% 29.39 in - East 49.5 mph 65.6 mph N/A Rain Rain
12:00 PM 77 °F - 75 °F 91% 29.39 in 2 mi East 50.6 mph - - Rain Rain
12:41 PM 78.8 °F - 75.2 °F 89% 29.33 in - East 44.9 mph 63.3 mph N/A Rain Light Rain
12:55 PM 78.8 °F - 75.2 °F 89% 29.30 in 1.5 mi East 47.2 mph 61.0 mph N/A Rain Rain
1:03 PM 77.0 °F - 75.2 °F 94% 29.27 in 0.5 mi East 48.3 mph 69.0 mph N/A Rain Heavy Rain
1:32 PM 77.0 °F - 75.2 °F 94% 29.27 in 1.0 mi East 49.5 mph 66.7 mph N/A Rain Rain
1:55 PM 78.8 °F - 75.2 °F 89% 29.24 in - East 48.3 mph 63.3 mph N/A Rain Rain
2:11 PM 77.0 °F - 75.2 °F 94% 29.21 in 1.0 mi East 52.9 mph 73.6 mph N/A Rain Rain
2:55 PM 77.0 °F - 75.2 °F 94% 29.15 in 1.0 mi East 54.1 mph 66.7 mph N/A Rain Rain
3:00 PM 77 °F - 75 °F 93% 29.17 in 1 mi East 48.3 mph - - Rain Rain
3:55 PM 78.8 °F - 75.2 °F 89% 29.09 in 1.5 mi East 57.5 mph 73.6 mph N/A Rain Light Rain
4:55 PM 78.8 °F - 75.2 °F 89% 29.03 in 1.5 mi ESE 61.0 mph 76.0 mph N/A Rain Light Rain
5:55 PM 78.8 °F - 75.2 °F 89% 28.97 in 1.5 mi ESE 59.8 mph 79.4 mph N/A Rain Light Rain
6:00 PM 78 °F - 75 °F 89% 28.99 in 1 mi East 50.6 mph - - Rain Light Rain
6:55 PM 78.8 °F - 75.2 °F 89% 28.88 in 1.5 mi ESE 55.2 mph 70.2 mph N/A Rain Light Rain
7:55 PM 78.8 °F - 75.2 °F 89% 28.82 in 1.5 mi ESE 54.1 mph 66.7 mph N/A Rain Light Rain
8:55 PM 78.8 °F - 75.2 °F 89% 28.74 in 1.5 mi SE 51.8 mph 67.9 mph N/A Rain Light Rain
9:00 PM 79 °F - 75 °F 83% 28.76 in 1 mi ESE 50.6 mph - - Rain Light Rain
9:55 PM 77.0 °F - 75.2 °F 94% 28.65 in 1.5 mi SE 51.8 mph 72.5 mph N/A Rain Light Rain
10:55 PM 77.0 °F - 75.2 °F 94% 28.56 in 1.0 mi SE 55.2 mph 72.5 mph N/A Rain Light Rain
11:22 PM 78.8 °F - 77.0 °F 94% 28.50 in 0.5 mi SSE 67.9 mph 93.2 mph N/A Rain Light Rain
11:55 PM 78.8 °F - 77.0 °F 94% 28.47 in 0.5 mi South 65.6 mph 84.0 mph N/A Rain Light Rain